Bainbridge, GA

8:24 PM EST on November 22, 2019 (GMT -0500)
Decatur County Industrial

Weather History for KBGE - September, 2019

Change the Weather History Date:

Friday, September 20, 2019

  Actual Average (WUND) Record (WUND)
Temperature  
Mean Temperature 76 °F -  
Max Temperature 90 °F - - (-1)
Min Temperature 63 °F - - (-1)
Cooling Degree Days 12    
Growing Degree Days 26 (Base 50)    
Moisture  
Dew Point 60 °F    
Average Humidity 59    
Maximum Humidity 87    
Minimum Humidity 31    
Precipitation  
Precipitation 0.00 in - - ()
Sea Level Pressure  
Sea Level Pressure 30.17 in    
Wind  
Wind Speed 9 mph ()    
Max Wind Speed 20 mph    
Max Gust Speed 26 mph    
Visibility 10.0 miles    
Events      
Averages and records for this station are not official NWS values.
T = Trace of Precipitation, MM = Missing Value Source: Averaged Metar Reports

Daily Weather History Graph

Daily Weather History Graph

Search for Another Location

Airport or City:

Astronomy

Sep. 20, 2019 Rise Set
Actual Time 7:25 AM EDT 7:38 PM EDT
Civil Twilight 7:01 AM EDT 8:02 PM EDT
Nautical Twilight 6:33 AM EDT 8:30 PM EDT
Astronomical Twilight 6:04 AM EDT 8:58 PM EDT
Moon 11:50 PM EDT (9/20) 1:07 PM EDT (9/20)
Length of Visible Light 13h 00m
Length of Day
12h 12m
Waning Gibbous, 65% of the Moon is Illuminated
Sep 20
Waning Gibbous
Sep 21
Last Quarter
Sep 28
New
Oct 5
First Quarter
Oct 13
Full

Hourly Weather History & Observations

Time (EDT) Temp. Heat Index Dew Point Humidity Pressure Visibility Wind Dir Wind Speed Gust Speed Precip Events Conditions
12:15 AM 66.4 °F - 53.1 °F 62% 30.15 in 10.0 mi East 6.9 mph - N/A   Clear
12:55 AM 66.0 °F - 53.8 °F 65% 30.15 in 10.0 mi East 8.1 mph - N/A   Clear
1:15 AM 65.7 °F - 54.3 °F 67% 30.15 in 10.0 mi East 5.8 mph - N/A   Clear
1:35 AM 65.7 °F - 54.1 °F 66% 30.15 in 10.0 mi East 6.9 mph - N/A   Clear
1:55 AM 64.9 °F - 55.0 °F 70% 30.15 in 10.0 mi ENE 6.9 mph - N/A   Clear
2:15 AM 64.8 °F - 55.6 °F 72% 30.15 in 10.0 mi East 6.9 mph - N/A   Clear
2:35 AM 64.0 °F - 56.5 °F 76% 30.15 in 10.0 mi East 5.8 mph - N/A   Clear
3:15 AM 65.1 °F - 59.7 °F 83% 30.15 in 10.0 mi ENE 6.9 mph - N/A   Clear
3:35 AM 65.7 °F - 60.1 °F 82% 30.15 in 10.0 mi NE 5.8 mph - N/A   Clear
3:55 AM 65.7 °F - 59.7 °F 81% 30.15 in 10.0 mi NE 6.9 mph - N/A   Clear
4:15 AM 65.1 °F - 59.9 °F 83% 30.15 in 10.0 mi ENE 6.9 mph - N/A   Clear
4:55 AM 64.6 °F - 60.1 °F 85% 30.16 in 10.0 mi ENE 6.9 mph - N/A   Clear
5:15 AM 64.2 °F - 60.1 °F 86% 30.16 in 10.0 mi ENE 6.9 mph - N/A   Clear
5:35 AM 64.4 °F - 60.1 °F 86% 30.16 in 10.0 mi ENE 6.9 mph - N/A   Clear
6:15 AM 63.9 °F - 60.1 °F 87% 30.17 in 10.0 mi ENE 8.1 mph - N/A   Clear
6:35 AM 64.0 °F - 59.9 °F 86% 30.18 in 10.0 mi ENE 9.2 mph - N/A   Clear
6:55 AM 64.2 °F - 59.9 °F 86% 30.18 in 10.0 mi ENE 6.9 mph - N/A   Clear
7:15 AM 64.4 °F - 59.9 °F 85% 30.19 in 10.0 mi NE 8.1 mph - N/A   Clear
7:35 AM 64.9 °F - 59.7 °F 83% 30.19 in 10.0 mi NE 8.1 mph - N/A   Clear
7:55 AM 65.5 °F - 59.7 °F 82% 30.20 in 10.0 mi NE 8.1 mph - N/A   Clear
8:15 AM 67.3 °F - 59.9 °F 77% 30.20 in 10.0 mi NE 8.1 mph - N/A   Clear
8:35 AM 68.5 °F - 59.9 °F 74% 30.20 in 10.0 mi ENE 11.5 mph - N/A   Clear
8:55 AM 69.4 °F - 59.9 °F 72% 30.21 in 10.0 mi ENE 12.7 mph - N/A   Clear
9:15 AM 71.6 °F - 60.4 °F 68% 30.21 in 10.0 mi ENE 11.5 mph - N/A   Clear
9:35 AM 72.5 °F - 60.4 °F 66% 30.21 in 10.0 mi ENE 17.3 mph - N/A   Clear
9:55 AM 75.4 °F - 61.2 °F 61% 30.21 in 10.0 mi ENE 15.0 mph 20.7 mph N/A   Clear
10:15 AM 77.0 °F - 61.7 °F 59% 30.22 in 10.0 mi East 17.3 mph 21.9 mph N/A   Clear
10:35 AM 78.8 °F - 62.1 °F 56% 30.22 in 10.0 mi East 15.0 mph 20.7 mph N/A   Clear
10:55 AM 79.5 °F - 62.1 °F 55% 30.22 in 10.0 mi ENE 13.8 mph 20.7 mph N/A   Clear
11:15 AM 81.5 °F 82.7 °F 62.8 °F 53% 30.22 in 10.0 mi East 12.7 mph - N/A   Clear
11:35 AM 82.8 °F 83.8 °F 63.1 °F 51% 30.22 in 10.0 mi East 13.8 mph 23.0 mph N/A   Clear
11:55 AM 84.4 °F 85.4 °F 63.3 °F 49% 30.22 in 10.0 mi ESE 11.5 mph - N/A   Clear
12:15 PM 84.4 °F 85.4 °F 63.5 °F 49% 30.22 in 10.0 mi East 13.8 mph 18.4 mph N/A   Scattered Clouds
12:35 PM 85.6 °F 86.6 °F 63.5 °F 47% 30.21 in 10.0 mi East 11.5 mph 18.4 mph N/A   Scattered Clouds
12:55 PM 86.7 °F 87.5 °F 63.1 °F 45% 30.21 in 10.0 mi East 15.0 mph 23.0 mph N/A   Scattered Clouds
1:15 PM 87.3 °F 88.0 °F 63.1 °F 44% 30.20 in 10.0 mi ENE 13.8 mph 20.7 mph N/A   Scattered Clouds
1:35 PM 85.3 °F 85.9 °F 62.2 °F 46% 30.19 in 10.0 mi ESE 10.4 mph 24.2 mph N/A   Scattered Clouds
1:55 PM 87.8 °F 88.2 °F 62.2 °F 42% 30.18 in 10.0 mi ESE 11.5 mph 19.6 mph N/A   Scattered Clouds
2:15 PM 85.6 °F 85.9 °F 61.5 °F 44% 30.18 in 10.0 mi East 16.1 mph - N/A   Overcast
2:35 PM 87.6 °F 87.7 °F 61.3 °F 41% 30.17 in 10.0 mi ESE 12.7 mph 20.7 mph N/A   Overcast
2:55 PM 89.4 °F 89.2 °F 61.0 °F 38% 30.16 in 10.0 mi East 13.8 mph 23.0 mph N/A   Overcast
3:15 PM 89.1 °F 89.0 °F 61.3 °F 39% 30.16 in 10.0 mi East 16.1 mph 23.0 mph N/A   Mostly Cloudy
3:35 PM 88.3 °F 87.8 °F 59.7 °F 38% 30.15 in 10.0 mi ESE 15.0 mph 19.6 mph N/A   Scattered Clouds
3:55 PM 89.8 °F 89.4 °F 60.1 °F 37% 30.15 in 10.0 mi East 11.5 mph 18.4 mph N/A   Mostly Cloudy
4:15 PM 90.3 °F 89.6 °F 59.5 °F 35% 30.14 in 10.0 mi East 12.7 mph 21.9 mph N/A   Mostly Cloudy
4:35 PM 90.5 °F 89.3 °F 58.1 °F 33% 30.14 in 10.0 mi ESE 10.4 mph - N/A   Scattered Clouds
4:55 PM 89.1 °F 87.7 °F 57.4 °F 34% 30.14 in 10.0 mi East 16.1 mph - N/A   Scattered Clouds
5:15 PM 90.0 °F 88.6 °F 57.0 °F 33% 30.14 in 10.0 mi East 13.8 mph 23.0 mph N/A   Scattered Clouds
5:35 PM 88.2 °F 86.1 °F 54.1 °F 31% 30.13 in 10.0 mi East 12.7 mph 20.7 mph N/A   Scattered Clouds
5:55 PM 88.7 °F 87.1 °F 56.5 °F 33% 30.13 in 10.0 mi ENE 19.6 mph 26.5 mph N/A   Mostly Cloudy
6:15 PM 86.4 °F 85.1 °F 56.3 °F 36% 30.14 in 10.0 mi East 15.0 mph - N/A   Scattered Clouds
6:35 PM 87.3 °F 85.7 °F 55.8 °F 34% 30.14 in 10.0 mi East 12.7 mph - N/A   Clear
6:55 PM 86.5 °F 85.1 °F 55.9 °F 35% 30.14 in 10.0 mi ENE 11.5 mph - N/A   Clear
7:15 PM 84.9 °F 83.9 °F 56.8 °F 38% 30.14 in 10.0 mi ENE 9.2 mph - N/A   Clear
7:35 PM 81.7 °F 81.6 °F 57.9 °F 44% 30.14 in 10.0 mi East 5.8 mph - N/A   Clear
7:55 PM 79.0 °F - 58.6 °F 50% 30.15 in 10.0 mi East 5.8 mph - N/A   Clear
8:15 PM 77.4 °F - 58.8 °F 53% 30.15 in 10.0 mi East 6.9 mph - N/A   Clear
8:35 PM 76.5 °F - 59.2 °F 55% 30.16 in 10.0 mi East 8.1 mph - N/A   Clear
8:55 PM 76.1 °F - 59.5 °F 56% 30.16 in 10.0 mi East 8.1 mph - N/A   Clear
9:15 PM 75.4 °F - 60.3 °F 59% 30.17 in 10.0 mi East 6.9 mph - N/A   Clear
9:35 PM 74.7 °F - 61.0 °F 62% 30.17 in 10.0 mi East 6.9 mph - N/A   Clear
9:55 PM 74.8 °F - 61.5 °F 63% 30.17 in 10.0 mi ESE 6.9 mph - N/A   Clear
10:15 PM 76.3 °F - 62.4 °F 62% 30.17 in 10.0 mi East 6.9 mph - N/A   Clear
10:35 PM 76.1 °F - 63.0 °F 64% 30.18 in 10.0 mi East 8.1 mph - N/A   Clear
10:55 PM 76.8 °F - 64.0 °F 65% 30.18 in 10.0 mi ESE 9.2 mph - N/A   Clear
11:15 PM 76.5 °F - 64.4 °F 66% 30.19 in 10.0 mi ESE 10.4 mph - N/A   Clear
11:35 PM 75.7 °F - 64.6 °F 68% 30.19 in 10.0 mi ESE 9.2 mph - N/A   Clear
11:55 PM 74.7 °F - 64.8 °F 71% 30.20 in 10.0 mi East 6.9 mph - N/A   Clear